| time (UTC) | temp F | wind direction | speed MPH | gust MPH | rain 1hr in | rain 24hr in | rain mn in | humidity % | barometer mb |
| 20260504205127 | 70 | 293 | 10.0 | 10.0 | 0.00 | 0.00 | 0.00 | 58 | 1010.9 |
| 20260504204626 | 69 | 288 | 5.0 | 7.0 | 0.00 | 0.00 | 0.00 | 59 | 1010.9 |
| 20260504204124 | 70 | 331 | 3.0 | 5.0 | 0.00 | 0.00 | 0.00 | 55 | 1010.7 |
| 20260504203622 | 70 | 357 | 6.0 | 10.0 | 0.00 | 0.00 | 0.00 | 56 | 1010.6 |
| 20260504203120 | 68 | 256 | 3.0 | 5.0 | 0.00 | 0.00 | 0.00 | 60 | 1010.6 |
| 20260504202614 | 68 | 2 | 7.0 | 9.0 | 0.00 | 0.00 | 0.00 | 59 | 1010.5 |
| 20260504202111 | 68 | 289 | 3.0 | 5.0 | 0.00 | 0.00 | 0.00 | 59 | 1010.7 |
| 20260504201608 | 68 | 276 | 4.0 | 6.0 | 0.00 | 0.00 | 0.00 | 59 | 1010.9 |
| 20260504201106 | 68 | 163 | 4.0 | 6.0 | 0.00 | 0.00 | 0.00 | 57 | 1010.8 |
| 20260504200603 | 69 | 224 | 2.0 | 3.0 | 0.00 | 0.00 | 0.00 | 56 | 1011.0 |
| 20260504200059 | 69 | 202 | 3.0 | 5.0 | 0.00 | 0.00 | 0.00 | 59 | 1011.0 |
| 20260504195555 | 69 | 53 | 3.0 | 3.0 | 0.00 | 0.00 | 0.00 | 57 | 1010.9 |
| 20260504195052 | 70 | 240 | 5.0 | 7.0 | 0.00 | 0.00 | 0.00 | 57 | 1011.1 |
| 20260504194549 | 69 | 313 | 9.0 | 11.0 | 0.00 | 0.00 | 0.00 | 58 | 1011.0 |
| 20260504194044 | 70 | 310 | 3.0 | 3.0 | 0.00 | 0.00 | 0.00 | 56 | 1011.1 |
| 20260504193541 | 70 | 292 | 5.0 | 6.0 | 0.00 | 0.00 | 0.00 | 57 | 1011.1 |
| 20260504193040 | 70 | 179 | 3.0 | 6.0 | 0.00 | 0.00 | 0.00 | 55 | 1011.0 |
| 20260504192537 | 69 | 157 | 3.0 | 6.0 | 0.00 | 0.00 | 0.00 | 56 | 1011.2 |
| 20260504192035 | 69 | 262 | 2.0 | 3.0 | 0.00 | 0.00 | 0.00 | 58 | 1011.4 |
| 20260504191533 | 69 | 259 | 4.0 | 5.0 | 0.00 | 0.00 | 0.00 | 59 | 1011.5 |
| 20260504191029 | 68 | 312 | 2.0 | 5.0 | 0.00 | 0.00 | 0.00 | 57 | 1011.4 |
| 20260504190525 | 67 | 248 | 1.0 | 2.0 | 0.00 | 0.00 | 0.00 | 58 | 1011.5 |
| 20260504190021 | 68 | 337 | 3.0 | 6.0 | 0.00 | 0.00 | 0.00 | 58 | 1011.8 |
| 20260504185518 | 68 | 318 | 5.0 | 7.0 | 0.00 | 0.00 | 0.00 | 58 | 1011.5 |
| 20260504185015 | 69 | 298 | 6.0 | 8.0 | 0.00 | 0.00 | 0.00 | 56 | 1011.8 |
| 20260504184510 | 69 | 237 | 1.0 | 3.0 | 0.00 | 0.00 | 0.00 | 57 | 1011.8 |
| 20260504184006 | 68 | 264 | 3.0 | 3.0 | 0.00 | 0.00 | 0.00 | 57 | 1011.5 |
| 20260504183503 | 68 | 271 | 5.0 | 8.0 | 0.00 | 0.00 | 0.00 | 57 | 1011.9 |
| 20260504183002 | 67 | 262 | 5.0 | 8.0 | 0.00 | 0.00 | 0.00 | 57 | 1012.1 |
| 20260504182458 | 68 | 337 | 5.0 | 6.0 | 0.00 | 0.00 | 0.00 | 57 | 1011.9 |
| 20260504181955 | 67 | 291 | 8.0 | 11.0 | 0.00 | 0.00 | 0.00 | 59 | 1012.1 |
| 20260504181452 | 66 | 317 | 3.0 | 6.0 | 0.00 | 0.00 | 0.00 | 57 | 1012.1 |
| 20260504180951 | 67 | 43 | 5.0 | 7.0 | 0.00 | 0.00 | 0.00 | 58 | 1012.4 |
| 20260504180449 | 66 | 275 | 3.0 | 5.0 | 0.00 | 0.00 | 0.00 | 58 | 1012.4 |
| 20260504175947 | 67 | 348 | 9.0 | 9.0 | 0.00 | 0.00 | 0.00 | 57 | 1012.3 |
| 20260504175444 | 67 | 300 | 7.0 | 9.0 | 0.00 | 0.00 | 0.00 | 58 | 1012.1 |
| 20260504174942 | 67 | 279 | 4.0 | 7.0 | 0.00 | 0.00 | 0.00 | 56 | 1012.3 |
| 20260504174439 | 66 | 262 | 5.0 | 6.0 | 0.00 | 0.00 | 0.00 | 57 | 1012.4 |
| 20260504173936 | 67 | 304 | 5.0 | 6.0 | 0.00 | 0.00 | 0.00 | 55 | 1012.4 |
| 20260504173432 | 66 | 310 | 4.0 | 6.0 | 0.00 | 0.00 | 0.00 | 56 | 1012.5 |
| 20260504172930 | 65 | 248 | 8.0 | 9.0 | 0.00 | 0.00 | 0.00 | 57 | 1012.5 |
| 20260504172426 | 65 | 279 | 3.0 | 5.0 | 0.00 | 0.00 | 0.00 | 57 | 1012.6 |
| 20260504171923 | 66 | 271 | 6.0 | 8.0 | 0.00 | 0.00 | 0.00 | 57 | 1012.7 |
| 20260504171420 | 65 | 196 | 2.0 | 2.0 | 0.00 | 0.00 | 0.00 | 57 | 1012.6 |
| 20260504170917 | 65 | 334 | 3.0 | 5.0 | 0.00 | 0.00 | 0.00 | 57 | 1012.5 |
| 20260504170413 | 67 | 253 | 7.0 | 10.0 | 0.00 | 0.00 | 0.00 | 55 | 1012.8 |
| 20260504160332 | 64 | 331 | 9.0 | 10.0 | 0.00 | 0.00 | 0.00 | 58 | 1013.4 |
| 20260504150756 | 60 | 288 | 5.0 | 8.0 | 0.00 | 0.00 | 0.00 | 57 | 1013.7 |
| 20260504150253 | 59 | 261 | 8.0 | 10.0 | 0.00 | 0.00 | 0.00 | 59 | 1013.8 |
| 20260504141223 | 60 | 297 | 5.0 | 7.0 | 0.00 | 0.00 | 0.00 | 57 | 1014.1 |
| 20260504140720 | 60 | 276 | 5.0 | 6.0 | 0.00 | 0.00 | 0.00 | 57 | 1014.1 |
| 20260504140215 | 59 | 263 | 4.0 | 6.0 | 0.00 | 0.00 | 0.00 | 59 | 1013.9 |
| 20260504130644 | 54 | 249 | 3.0 | 5.0 | 0.00 | 0.00 | 0.00 | 66 | 1014.3 |
| 20260504130140 | 54 | 264 | 2.0 | 3.0 | 0.00 | 0.00 | 0.00 | 65 | 1014.1 |
| 20260504120104 | 47 | 267 | 0.0 | 0.0 | 0.00 | 0.00 | 0.00 | 79 | 1014.8 |
| 20260504110532 | 39 | 223 | 0.0 | 0.0 | 0.00 | 0.00 | 0.00 | 91 | 1014.9 |
| 20260504100454 | 38 | 232 | 0.0 | 0.0 | 0.00 | 0.00 | 0.00 | 93 | 1014.6 |
| 20260504081847 | 37 | 255 | 0.0 | 0.0 | 0.00 | 0.00 | 0.00 | 96 | 1015.4 |
| 20260504081343 | 37 | 255 | 0.0 | 0.0 | 0.00 | 0.00 | 0.00 | 96 | 1015.3 |
| 20260504080839 | 37 | 255 | 0.0 | 0.0 | 0.00 | 0.00 | 0.00 | 96 | 1015.4 |
| 20260504080337 | 37 | 255 | 0.0 | 0.0 | 0.00 | 0.00 | 0.00 | 96 | 1015.6 |
| 20260504070304 | 34 | 247 | 0.0 | 0.0 | 0.00 | 0.00 | 0.00 | 97 | 1015.7 |
| 20260504060224 | 35 | 243 | 0.0 | 0.0 | 0.00 | 0.00 | 0.00 | 94 | 1015.9 |
| 20260504050652 | 36 | 260 | 0.0 | 0.0 | 0.00 | 0.00 | 0.00 | 93 | 1016.3 |
| 20260504050149 | 36 | 260 | 0.0 | 0.0 | 0.00 | 0.00 | 0.00 | 93 | 1016.2 |
| 20260504045646 | 36 | 260 | 0.0 | 0.0 | 0.00 | 0.00 | 0.00 | 93 | 1016.5 |
| 20260504045146 | 36 | 260 | 0.0 | 0.0 | 0.00 | 0.00 | 0.00 | 93 | 1016.3 |
| 20260504044644 | 36 | 260 | 0.0 | 0.0 | 0.00 | 0.00 | 0.00 | 93 | 1016.5 |
| 20260504044141 | 36 | 260 | 0.0 | 0.0 | 0.00 | 0.00 | 0.00 | 93 | 1016.2 |
| 20260504043638 | 36 | 260 | 0.0 | 0.0 | 0.00 | 0.00 | 0.00 | 93 | 1016.3 |
| 20260504043135 | 36 | 260 | 0.0 | 0.0 | 0.00 | 0.00 | 0.00 | 93 | 1016.2 |
| 20260504042632 | 36 | 260 | 0.0 | 0.0 | 0.00 | 0.00 | 0.00 | 92 | 1016.0 |
| 20260504042129 | 36 | 260 | 0.0 | 0.0 | 0.00 | 0.00 | 0.00 | 92 | 1016.4 |
| 20260504041625 | 36 | 260 | 0.0 | 0.0 | 0.00 | 0.00 | 0.00 | 91 | 1016.3 |
| 20260504041121 | 36 | 260 | 0.0 | 0.0 | 0.00 | 0.00 | 0.00 | 91 | 1016.2 |
| 20260504040618 | 36 | 259 | 0.0 | 0.0 | 0.00 | 0.00 | 0.00 | 90 | 1016.2 |
| 20260504040115 | 36 | 259 | 0.0 | 0.0 | 0.00 | 0.00 | 0.00 | 90 | 1016.5 |
| 20260504035612 | 37 | 259 | 0.0 | 0.0 | 0.00 | 0.00 | 0.00 | 90 | 1016.3 |
| 20260504035108 | 37 | 259 | 0.0 | 0.0 | 0.00 | 0.00 | 0.00 | 90 | 1016.2 |
| 20260504034606 | 37 | 259 | 0.0 | 0.0 | 0.00 | 0.00 | 0.00 | 90 | 1016.5 |
| 20260504034103 | 37 | 260 | 0.0 | 0.0 | 0.00 | 0.00 | 0.00 | 89 | 1016.4 |
| 20260504033601 | 37 | 260 | 0.0 | 0.0 | 0.00 | 0.00 | 0.00 | 89 | 1016.5 |
| 20260504033058 | 37 | 260 | 0.0 | 0.0 | 0.00 | 0.00 | 0.00 | 89 | 1016.5 |
| 20260504032555 | 38 | 260 | 0.0 | 0.0 | 0.00 | 0.00 | 0.00 | 88 | 1016.4 |
| 20260504032052 | 38 | 260 | 0.0 | 0.0 | 0.00 | 0.00 | 0.00 | 88 | 1016.5 |
| 20260504031549 | 38 | 260 | 0.0 | 0.0 | 0.00 | 0.00 | 0.00 | 87 | 1016.4 |
| 20260504031045 | 38 | 260 | 0.0 | 0.0 | 0.00 | 0.00 | 0.00 | 87 | 1016.3 |
| 20260504030542 | 38 | 260 | 0.0 | 0.0 | 0.00 | 0.00 | 0.00 | 86 | 1016.3 |
| 20260504030038 | 38 | 260 | 0.0 | 0.0 | 0.00 | 0.00 | 0.00 | 86 | 1016.2 |
| 20260504025536 | 39 | 260 | 0.0 | 0.0 | 0.00 | 0.00 | 0.00 | 85 | 1016.5 |
| 20260504025032 | 39 | 260 | 0.0 | 0.0 | 0.00 | 0.00 | 0.00 | 85 | 1016.3 |
| 20260504024529 | 39 | 260 | 0.0 | 0.0 | 0.00 | 0.00 | 0.00 | 84 | 1016.5 |
| 20260504024026 | 40 | 259 | 0.0 | 0.0 | 0.00 | 0.00 | 0.00 | 82 | 1016.3 |
| 20260504023523 | 40 | 259 | 0.0 | 0.0 | 0.00 | 0.00 | 0.00 | 82 | 1016.5 |
| 20260504023018 | 41 | 260 | 0.0 | 0.0 | 0.00 | 0.00 | 0.00 | 81 | 1016.6 |
| 20260504022514 | 41 | 260 | 0.0 | 0.0 | 0.00 | 0.00 | 0.00 | 81 | 1016.7 |
| 20260504022011 | 41 | 260 | 0.0 | 0.0 | 0.00 | 0.00 | 0.00 | 81 | 1016.5 |
| 20260504021509 | 41 | 260 | 0.0 | 0.0 | 0.00 | 0.00 | 0.00 | 80 | 1016.5 |
| 20260504021006 | 41 | 260 | 0.0 | 0.0 | 0.00 | 0.00 | 0.00 | 80 | 1016.4 |
| 20260504020502 | 41 | 260 | 0.0 | 0.0 | 0.00 | 0.00 | 0.00 | 78 | 1016.3 |
| 20260504015959 | 42 | 260 | 0.0 | 0.0 | 0.00 | 0.00 | 0.00 | 78 | 1016.2 |
| 20260504015455 | 42 | 260 | 0.0 | 0.0 | 0.00 | 0.00 | 0.00 | 77 | 1016.1 |
| 20260504014951 | 43 | 260 | 0.0 | 0.0 | 0.00 | 0.00 | 0.00 | 76 | 1016.2 |
| 20260504014447 | 43 | 260 | 0.0 | 0.0 | 0.00 | 0.00 | 0.00 | 75 | 1016.0 |
| 20260504013944 | 43 | 260 | 0.0 | 0.0 | 0.00 | 0.00 | 0.00 | 74 | 1016.1 |
| 20260504013443 | 43 | 260 | 0.0 | 0.0 | 0.00 | 0.00 | 0.00 | 75 | 1016.4 |
| 20260504012938 | 43 | 260 | 0.0 | 0.0 | 0.00 | 0.00 | 0.00 | 73 | 1016.2 |
| 20260504012437 | 44 | 260 | 0.0 | 0.0 | 0.00 | 0.00 | 0.00 | 74 | 1015.9 |
| 20260504011934 | 44 | 260 | 0.0 | 0.0 | 0.00 | 0.00 | 0.00 | 74 | 1015.9 |
| 20260504011431 | 44 | 260 | 0.0 | 0.0 | 0.00 | 0.00 | 0.00 | 73 | 1016.2 |
| 20260504010926 | 45 | 259 | 0.0 | 0.0 | 0.00 | 0.00 | 0.00 | 69 | 1016.0 |
| 20260504010423 | 45 | 259 | 0.0 | 0.0 | 0.00 | 0.00 | 0.00 | 67 | 1016.1 |
| 20260504005919 | 46 | 260 | 0.0 | 0.0 | 0.00 | 0.00 | 0.00 | 67 | 1016.0 |
| 20260504005415 | 46 | 259 | 0.0 | 0.0 | 0.00 | 0.00 | 0.00 | 64 | 1016.0 |
| 20260504004913 | 47 | 259 | 0.0 | 0.0 | 0.00 | 0.00 | 0.00 | 62 | 1016.0 |
| 20260504004411 | 48 | 261 | 0.0 | 0.0 | 0.00 | 0.00 | 0.00 | 62 | 1015.7 |
| 20260504003908 | 48 | 265 | 0.0 | 0.0 | 0.00 | 0.00 | 0.00 | 59 | 1016.1 |
| 20260504003404 | 50 | 264 | 0.0 | 0.0 | 0.00 | 0.00 | 0.00 | 57 | 1015.6 |
| 20260504002900 | 50 | 243 | 0.0 | 0.0 | 0.00 | 0.00 | 0.00 | 54 | 1015.5 |
| 20260504002358 | 50 | 260 | 0.0 | 0.0 | 0.00 | 0.00 | 0.00 | 54 | 1015.9 |
| 20260504001855 | 50 | 260 | 0.0 | 0.0 | 0.00 | 0.00 | 0.00 | 53 | 1015.6 |
| 20260504001353 | 50 | 269 | 0.0 | 0.0 | 0.00 | 0.00 | 0.00 | 54 | 1015.7 |
| 20260504000849 | 50 | 269 | 0.0 | 0.0 | 0.00 | 0.00 | 0.00 | 52 | 1015.6 |
| 20260504000346 | 50 | 273 | 0.0 | 0.0 | 0.00 | 0.00 | 0.00 | 54 | 1015.6 |
| 20260503235844 | 51 | 255 | 0.0 | 0.0 | 0.00 | 0.00 | 0.00 | 53 | 1016.0 |
| 20260503235341 | 51 | 271 | 0.0 | 0.0 | 0.00 | 0.00 | 0.00 | 54 | 1015.7 |
| 20260503234838 | 51 | 332 | 4.0 | 5.0 | 0.00 | 0.00 | 0.00 | 51 | 1015.7 |
| 20260503234336 | 52 | 238 | 3.0 | 3.0 | 0.00 | 0.00 | 0.00 | 51 | 1015.9 |
| 20260503233834 | 51 | 283 | 4.0 | 6.0 | 0.00 | 0.00 | 0.00 | 52 | 1015.9 |
| 20260503233330 | 52 | 319 | 3.0 | 3.0 | 0.00 | 0.00 | 0.00 | 54 | 1015.7 |
| 20260503232826 | 52 | 279 | 4.0 | 5.0 | 0.00 | 0.00 | 0.00 | 53 | 1015.9 |
| 20260503232324 | 52 | 252 | 5.0 | 7.0 | 0.00 | 0.00 | 0.00 | 52 | 1015.4 |
| 20260503231821 | 53 | 293 | 5.0 | 6.0 | 0.00 | 0.00 | 0.00 | 51 | 1015.9 |
| 20260503231318 | 53 | 279 | 5.0 | 7.0 | 0.00 | 0.00 | 0.00 | 50 | 1015.5 |
| 20260503230814 | 53 | 333 | 5.0 | 8.0 | 0.00 | 0.00 | 0.00 | 49 | 1015.6 |
| 20260503230311 | 54 | 288 | 5.0 | 6.0 | 0.00 | 0.00 | 0.00 | 50 | 1015.6 |
| 20260503225809 | 54 | 279 | 3.0 | 5.0 | 0.00 | 0.00 | 0.00 | 48 | 1015.4 |
| 20260503225305 | 54 | 26 | 9.0 | 10.0 | 0.00 | 0.00 | 0.00 | 49 | 1015.5 |
| 20260503224801 | 54 | 345 | 7.0 | 8.0 | 0.00 | 0.00 | 0.00 | 49 | 1015.7 |
| 20260503224259 | 54 | 285 | 2.0 | 2.0 | 0.00 | 0.00 | 0.00 | 51 | 1015.7 |
| 20260503223756 | 54 | 11 | 12.0 | 15.0 | 0.00 | 0.00 | 0.00 | 47 | 1015.9 |
| 20260503223254 | 54 | 16 | 11.0 | 13.0 | 0.00 | 0.00 | 0.00 | 47 | 1015.9 |
| 20260503222749 | 55 | 279 | 8.0 | 10.0 | 0.00 | 0.00 | 0.00 | 49 | 1015.9 |
| 20260503222247 | 55 | 284 | 4.0 | 6.0 | 0.00 | 0.00 | 0.00 | 47 | 1015.7 |
| 20260503221746 | 55 | 318 | 7.0 | 8.0 | 0.00 | 0.00 | 0.00 | 49 | 1015.6 |
| 20260503221243 | 55 | 333 | 7.0 | 8.0 | 0.00 | 0.00 | 0.00 | 50 | 1015.5 |
| 20260503220740 | 55 | 271 | 4.0 | 6.0 | 0.00 | 0.00 | 0.00 | 45 | 1015.5 |
| 20260503220237 | 55 | 281 | 9.0 | 11.0 | 0.00 | 0.00 | 0.00 | 49 | 1015.6 |
| 20260503215733 | 56 | 291 | 7.0 | 9.0 | 0.00 | 0.00 | 0.00 | 47 | 1015.6 |
| 20260503215230 | 56 | 277 | 2.0 | 2.0 | 0.00 | 0.00 | 0.00 | 48 | 1015.7 |
| 20260503214728 | 55 | 307 | 6.0 | 7.0 | 0.00 | 0.00 | 0.00 | 47 | 1015.6 |
| 20260503214225 | 55 | 288 | 7.0 | 10.0 | 0.00 | 0.00 | 0.00 | 50 | 1015.9 |
| 20260503213723 | 55 | 274 | 3.0 | 5.0 | 0.00 | 0.00 | 0.00 | 46 | 1015.7 |
| 20260503213220 | 55 | 303 | 4.0 | 7.0 | 0.00 | 0.00 | 0.00 | 47 | 1015.7 |
| 20260503212717 | 55 | 242 | 3.0 | 3.0 | 0.00 | 0.00 | 0.00 | 47 | 1015.9 |
| 20260503212215 | 55 | 266 | 2.0 | 5.0 | 0.00 | 0.00 | 0.00 | 47 | 1015.9 |
| 20260503211712 | 54 | 344 | 7.0 | 9.0 | 0.00 | 0.00 | 0.00 | 50 | 1016.0 |
| 20260503211208 | 55 | 353 | 10.0 | 11.0 | 0.00 | 0.00 | 0.00 | 45 | 1016.0 |
| 20260503210703 | 55 | 312 | 7.0 | 9.0 | 0.00 | 0.00 | 0.00 | 46 | 1015.7 |
| 20260503210201 | 55 | 278 | 4.0 | 5.0 | 0.00 | 0.00 | 0.00 | 49 | 1016.0 |
| 20260503205656 | 55 | 285 | 5.0 | 7.0 | 0.00 | 0.00 | 0.00 | 47 | 1015.6 |